Location: Katherine
(14.4670°S, 132.2670°E)
Time: 14:23:02
(UTC+09:30)

ISS - Pass Details

Date: 18 February 2018
Orbit: 402 x 407 km, 51.6° (Epoch: 23 February)

Event Time Altitude Azimuth Distance (km) Brightness Sun altitude
Rises 05:52:57 0° 191° (S) 2,339 0.1 -11.7°
Reaches altitude 10° 05:55:57 10° 161° (SSE) 1,472 -0.5 -11.0°
Maximum altitude 05:57:33 13° 132° (SE) 1,305 -0.2 -10.6°
Drops below altitude 10° 05:59:08 10° 103° (ESE) 1,464 0.6 -10.2°
Sets 06:02:06 0° 73° (ENE) 2,316 1.1 -9.5°
